TimeMDT,TemperatureF,Dew PointF,Humidity,Sea Level PressureIn,VisibilityMPH,Wind Direction,Wind SpeedMPH,Gust SpeedMPH,PrecipitationIn,Events,Conditions,WindDirDegrees,DateUTC
12:15 AM,75.2,48.2,38,30.12,10.0,South,4.6,-,N/A,,Clear,170,2013-07-27 06:15:00
12:35 AM,77.0,53.6,44,30.13,10.0,East,4.6,-,N/A,,Clear,100,2013-07-27 06:35:00
12:55 AM,78.8,48.2,34,30.13,10.0,East,4.6,-,N/A,,Clear,80,2013-07-27 06:55:00
1:15 AM,80.6,48.2,32,30.13,10.0,East,12.7,19.6,N/A,,Clear,100,2013-07-27 07:15:00
1:35 AM,80.6,51.8,37,30.14,10.0,ESE,3.5,-,N/A,,Clear,120,2013-07-27 07:35:00
1:55 AM,80.6,50.0,34,30.15,10.0,South,9.2,-,N/A,,Clear,190,2013-07-27 07:55:00
2:15 AM,80.6,51.8,37,30.15,10.0,ESE,6.9,-,N/A,,Clear,120,2013-07-27 08:15:00
2:35 AM,78.8,50.0,36,30.15,10.0,ESE,9.2,-,N/A,,Clear,120,2013-07-27 08:35:00
2:55 AM,78.8,48.2,34,30.15,10.0,South,5.8,-,N/A,,Clear,180,2013-07-27 08:55:00
3:15 AM,78.8,48.2,34,30.14,10.0,South,6.9,-,N/A,,Clear,170,2013-07-27 09:15:00
3:35 AM,78.8,50.0,36,30.14,10.0,SE,6.9,-,N/A,,Clear,130,2013-07-27 09:35:00
3:55 AM,75.2,51.8,44,30.14,10.0,SE,6.9,-,N/A,,Clear,140,2013-07-27 09:55:00
4:15 AM,75.2,50.0,41,30.13,10.0,South,10.4,-,N/A,,Clear,180,2013-07-27 10:15:00
4:35 AM,77.0,51.8,41,30.13,10.0,SE,5.8,-,N/A,,Clear,130,2013-07-27 10:35:00
4:55 AM,77.0,51.8,41,30.13,10.0,South,4.6,-,N/A,,Scattered Clouds,170,2013-07-27 10:55:00
5:15 AM,78.8,50.0,36,30.13,10.0,SSW,10.4,17.3,N/A,,Scattered Clouds,200,2013-07-27 11:15:00
5:35 AM,78.8,53.6,42,30.13,10.0,SE,3.5,-,N/A,,Scattered Clouds,140,2013-07-27 11:35:00
5:55 AM,77.0,53.6,44,30.14,10.0,SSW,3.5,-,N/A,,Mostly Cloudy,200,2013-07-27 11:55:00
6:15 AM,77.0,51.8,41,30.14,10.0,East,3.5,-,N/A,,Partly Cloudy,100,2013-07-27 12:15:00
6:35 AM,75.2,51.8,44,30.14,10.0,East,10.4,-,N/A,,Partly Cloudy,100,2013-07-27 12:35:00
6:50 AM,73.4,51.8,47,30.14,15.0,ENE,4.6,-,N/A,,Overcast,60,2013-07-27 12:50:00
7:47 AM,73.4,53.6,50,30.16,15.0,Variable,5.8,-,N/A,,Overcast,0,2013-07-27 13:47:00
8:47 AM,75.2,53.6,47,30.17,15.0,Variable,4.6,-,N/A,,Mostly Cloudy,0,2013-07-27 14:47:00
9:49 AM,75.2,53.6,47,30.16,15.0,Variable,4.6,-,N/A,,Mostly Cloudy,0,2013-07-27 15:49:00
10:47 AM,78.8,53.6,42,30.15,15.0,East,4.6,-,N/A,,Mostly Cloudy,100,2013-07-27 16:47:00
11:47 AM,78.8,53.6,42,30.13,15.0,Variable,3.5,-,N/A,,Mostly Cloudy,0,2013-07-27 17:47:00
12:47 PM,78.8,51.8,39,30.11,15.0,Calm,Calm,-,N/A,,Mostly Cloudy,0,2013-07-27 18:47:00
1:54 PM,78.8,55.4,44,30.10,15.0,NNW,6.9,-,N/A,,Mostly Cloudy,330,2013-07-27 19:54:00
2:49 PM,78.8,55.4,44,30.08,15.0,NW,3.5,-,N/A,,Mostly Cloudy,310,2013-07-27 20:49:00
3:50 PM,78.8,55.4,44,30.05,15.0,NW,13.8,-,N/A,,Overcast,310,2013-07-27 21:50:00
4:48 PM,78.8,55.4,44,30.05,15.0,NNW,6.9,-,N/A,,Mostly Cloudy,330,2013-07-27 22:48:00
6:50 PM,75.2,55.4,50,30.02,15.0,NW,11.5,-,N/A,,Mostly Cloudy,310,2013-07-28 00:50:00
7:50 PM,73.4,57.2,57,30.02,15.0,Variable,5.8,-,N/A,,Overcast,0,2013-07-28 01:50:00
8:50 PM,73.4,57.2,57,30.02,15.0,Variable,4.6,-,N/A,,Overcast,0,2013-07-28 02:50:00
9:15 PM,73.4,59.0,61,30.02,10.0,South,10.4,-,N/A,,Mostly Cloudy,180,2013-07-28 03:15:00
9:35 PM,71.6,59.0,64,30.02,10.0,SSW,9.2,-,N/A,,Scattered Clouds,200,2013-07-28 03:35:00
9:55 PM,71.6,57.2,60,30.03,10.0,SE,8.1,-,N/A,,Scattered Clouds,140,2013-07-28 03:55:00
10:15 PM,69.8,57.2,64,30.04,10.0,ESE,6.9,-,N/A,,Mostly Cloudy,110,2013-07-28 04:15:00
10:35 PM,69.8,57.2,64,30.04,10.0,SE,5.8,-,N/A,,Mostly Cloudy,140,2013-07-28 04:35:00
10:55 PM,68.0,57.2,68,30.04,10.0,East,4.6,-,N/A,,Partly Cloudy,90,2013-07-28 04:55:00
11:15 PM,66.2,57.2,73,30.04,10.0,Calm,Calm,-,N/A,,Clear,0,2013-07-28 05:15:00
11:35 PM,69.8,57.2,64,30.04,10.0,Calm,Calm,-,N/A,,Clear,0,2013-07-28 05:35:00
11:55 PM,66.2,57.2,73,30.05,10.0,Calm,Calm,-,N/A,,Clear,0,2013-07-28 05:55:00